Weather History for KSSC - February, 2014

Change the Weather History Date:

Monday, February 10, 2014

  Actual Average Record
Temperature  
Mean Temperature 46 °F -  
Max Temperature 53 °F 56 °F 73 °F (2002)
Min Temperature 38 °F 35 °F 24 °F (2006)
Degree Days  
Heating Degree Days 20    
Moisture  
Dew Point 37 °F    
Average Humidity 71    
Maximum Humidity 93    
Minimum Humidity 55    
Precipitation  
Precipitation 0.00 in - - ()
Sea Level Pressure  
Sea Level Pressure 30.10 in    
Wind  
Wind Speed 6 mph (NE)    
Max Wind Speed 17 mph    
Max Gust Speed -    
Visibility 10 miles    
Events Rain    
Averages and records for this station are not official NWS values.
T = Trace of Precipitation, MM = Missing Value Source: NWS Daily Summary

Daily Weather History Graph

Daily Weather History Graph

Search for Another Location

Airport or City:

Trip Planner

Search our weather history database for the weather conditions in past years. The results will help you decide how hot, cold, wet, or windy it might be!

Date:

Astronomy

Feb. 10, 2014 Rise Set
Actual Time 7:11 AM EST 6:01 PM EST
Civil Twilight 6:45 AM EST 6:27 PM EST
Nautical Twilight 6:16 AM EST 6:56 PM EST
Astronomical Twilight 5:46 AM EST 7:25 PM EST
Moon 2:33 PM EST (2/10) 3:58 AM EST (2/10)
Length of Visible Light 11h 41m
Length of Day
10h 49m
Waxing Gibbous, 84% of the Moon is Illuminated
Feb 10
Waxing Gibbous
Feb 14
Full
Feb 22
Last Quarter
Mar 1
New
Mar 8
First Quarter

Hourly Weather History & Observations

Time (EST) Temp. Windchill Dew Point Humidity Pressure Visibility Wind Dir Wind Speed Gust Speed Precip Events Conditions
12:58 AM 43.7 °F - 39.0 °F 84% 30.05 in 10.0 mi Calm Calm - N/A   Clear
1:58 AM 40.8 °F - 39.0 °F 93% 30.04 in 10.0 mi SSW 2.3 mph - N/A   Clear
2:58 AM 41.2 °F - 38.1 °F 89% 30.04 in 10.0 mi Calm Calm - N/A   Clear
3:58 AM 38.5 °F 36.1 °F 35.1 °F 87% 30.01 in 10.0 mi ENE 3.5 mph - N/A   Clear
4:58 AM 39.7 °F - 36.3 °F 88% 30.03 in 10.0 mi Calm Calm - N/A   Clear
5:58 AM 40.6 °F - 37.6 °F 89% 30.06 in 10.0 mi West 2.3 mph - N/A   Overcast
6:58 AM 42.6 °F - 38.8 °F 86% 30.09 in 10.0 mi West 2.3 mph - N/A   Overcast
7:58 AM 42.8 °F - 39.7 °F 89% 30.11 in 10.0 mi WSW 2.3 mph - N/A   Mostly Cloudy
8:58 AM 45.5 °F - 40.6 °F 83% 30.11 in 10.0 mi Calm Calm - N/A   Overcast
9:58 AM 48.0 °F - 39.6 °F 73% 30.13 in 10.0 mi NNE 8.1 mph - N/A   Mostly Cloudy
10:58 AM 48.6 °F - 39.6 °F 71% 30.13 in 10.0 mi ENE 8.1 mph - N/A   Clear
11:58 AM 51.8 °F - 39.2 °F 62% 30.12 in 10.0 mi NE 8.1 mph - N/A   Scattered Clouds
12:58 PM 52.7 °F - 38.3 °F 58% 30.09 in 10.0 mi ENE 6.9 mph - N/A   Scattered Clouds
1:58 PM 53.8 °F - 38.1 °F 55% 30.06 in 10.0 mi North 6.9 mph - N/A   Mostly Cloudy
2:58 PM 52.7 °F - 38.1 °F 58% 30.06 in 10.0 mi NE 10.4 mph - N/A   Overcast
3:27 PM 51.8 °F - 37.4 °F 58% 30.06 in 10.0 mi NE 9.2 mph - N/A   Light Drizzle
3:38 PM 51.8 °F - 37.4 °F 58% 30.06 in 10.0 mi NE 9.2 mph - N/A   Overcast
3:58 PM 52.0 °F - 37.8 °F 58% 30.07 in 10.0 mi NNE 10.4 mph - 0.00 in   Overcast
4:24 PM 51.8 °F - 37.4 °F 58% 30.07 in 10.0 mi NE 9.2 mph - N/A Rain Light Rain
4:35 PM 51.8 °F - 37.4 °F 58% 30.06 in 10.0 mi NE 10.4 mph - N/A   Overcast
4:52 PM 51.8 °F - 37.4 °F 58% 30.08 in 10.0 mi NNE 9.2 mph - N/A Rain Light Rain
4:58 PM 50.9 °F - 38.3 °F 62% 30.09 in 10.0 mi NNE 12.7 mph - 0.00 in Rain Light Rain
5:04 PM 50.0 °F - 37.4 °F 62% 30.08 in 10.0 mi NNE 10.4 mph - N/A   Overcast
5:30 PM 50.0 °F - 37.4 °F 62% 30.09 in 10.0 mi NNE 10.4 mph - N/A Rain Light Rain
5:55 PM 48.2 °F - 39.2 °F 71% 30.10 in 10.0 mi NE 9.2 mph - N/A   Overcast
5:58 PM 47.7 °F - 39.0 °F 72% 30.11 in 10.0 mi NNE 8.1 mph - 0.00 in   Overcast
6:10 PM 48.2 °F - 39.2 °F 71% 30.09 in 10.0 mi NNE 10.4 mph - N/A Rain Light Rain
6:25 PM 46.4 °F 41.5 °F 39.2 °F 76% 30.09 in 10.0 mi NE 10.4 mph - N/A   Overcast
6:58 PM 47.7 °F - 37.4 °F 68% 30.11 in 10.0 mi ENE 10.4 mph - 0.00 in   Overcast
7:56 PM 46.4 °F 39.5 °F 32.0 °F 57% 30.12 in 10.0 mi ENE 17.3 mph - N/A   Light Drizzle
7:58 PM 46.4 °F 40.1 °F 32.0 °F 57% 30.13 in 10.0 mi ENE 15.0 mph - N/A   Light Drizzle
8:05 PM 46.4 °F 40.1 °F 32.0 °F 57% 30.13 in 10.0 mi NE 15.0 mph - N/A   Overcast
8:58 PM 44.8 °F 37.7 °F 31.3 °F 59% 30.16 in 10.0 mi NE 16.1 mph - 0.00 in   Overcast
9:19 PM 44.6 °F 37.4 °F 32.0 °F 61% 30.16 in 10.0 mi NNE 16.1 mph - N/A Rain Light Rain
9:58 PM 41.4 °F 34.3 °F 35.2 °F 79% 30.18 in 10.0 mi NE 12.7 mph - 0.00 in Rain Light Rain
10:05 PM 41.0 °F 33.9 °F 35.6 °F 81% 30.17 in 10.0 mi NE 12.7 mph - N/A   Overcast
10:58 PM 39.9 °F 32.9 °F 34.9 °F 82% 30.18 in 10.0 mi NE 11.5 mph - 0.00 in   Overcast
11:58 PM 39.4 °F 31.8 °F 35.1 °F 84% 30.19 in 10.0 mi NE 12.7 mph - N/A   Overcast
11:59 PM 39.2 °F 31.6 °F 35.6 °F 87% 30.18 in 10.0 mi NE 12.7 mph - N/A Rain Light Rain